Location: Arbon
(43.0005°N, 0.7472°E)
Time: 13:02:19
(UTC+00:00)

Vanguard 1 - Pass Details

Date: 27 November 2020
Orbit: 648 x 3834 km, 34.3° (Epoch: 23 January)

Event Time Altitude Azimuth Distance (km) Brightness Sun altitude
Rises 03:18:20 0° 189° (S) 3,194 - -40.8°
Reaches altitude 10° 03:22:20 10° 155° (SSE) 2,615 - -40.0°
Exits shadow 03:23:00 11° 149° (SSE) 2,613 12.4 -39.9°
Maximum altitude 03:24:26 12° 135° (SE) 2,704 12.6 -39.7°
Drops below altitude 10° 03:26:50 10° 115° (ESE) 3,107 13.1 -39.2°
Sets 03:33:00 0° 88° (E) 4,835 14.6 -38.1°
